When you browse on this site, cookies collect data to enhance your experience and personalize the content and advertising you see.
Visit our Privacy Policy to learn more. By continuing to use the site, you agree to this use of cookies and data.
  • In Hungary
  • List of Countries
  • For 7 days
  • Water Temperature
  • Weather Map
  • News
  • Weather Widgets
  • user-avatar
    Login

    Hourly Weather Casper

    Today, 14 November, Thursday

    Time Temperature Precipitation Wind Pressure Humidity
    00:00 0°C° 0 mm 1 mps 630 mmHg 81%
    01:00 -1°C° 0 mm 2 mps 631 mmHg 80%
    02:00 -1°C° 0 mm 2 mps 631 mmHg 78%
    03:00 -1°C° 0 mm 2 mps 631 mmHg 78%
    04:00 -1°C° 0 mm 2 mps 631 mmHg 78%
    05:00 -1°C° 0 mm 2 mps 631 mmHg 77%
    06:00 -1°C° 0 mm 2 mps 632 mmHg 75%
    07:00 +1°C° 0 mm 2 mps 632 mmHg 73%
    08:00 0°C° 0 mm 3 mps 632 mmHg 70%
    09:00 +2°C° 0 mm 3 mps 632 mmHg 64%
    10:00 +4°C° 0 mm 4 mps 632 mmHg 57%
    11:00 +6°C° 0 mm 4 mps 632 mmHg 50%
    12:00 +6°C° 0 mm 4 mps 632 mmHg 50%
    13:00 +7°C° 0 mm 5 mps 631 mmHg 49%
    14:00 +7°C° 0 mm 5 mps 631 mmHg 49%
    15:00 +6°C° 0 mm 4 mps 630 mmHg 54%
    16:00 +4°C° 0 mm 4 mps 629 mmHg 59%
    17:00 +3°C° 0 mm 4 mps 629 mmHg 64%
    18:00 +3°C° 0 mm 4 mps 629 mmHg 64%
    19:00 +1°C° 0 mm 4 mps 629 mmHg 64%
    20:00 +1°C° 0 mm 4 mps 629 mmHg 64%
    21:00 +1°C° 0 mm 4 mps 629 mmHg 63%
    22:00 +1°C° 0 mm 4 mps 629 mmHg 63%
    23:00 +1°C° 0 mm 4 mps 628 mmHg 63%

    Tomorrow, 15 November, Friday

    Time Temperature Precipitation Wind Pressure Humidity
    00:00 +1°C° 0 mm 4 mps 628 mmHg 61%
    01:00 +1°C° 0 mm 4 mps 628 mmHg 60%
    02:00 +3°C° 0 mm 4 mps 628 mmHg 59%
    03:00 +3°C° 0 mm 4 mps 628 mmHg 58%
    04:00 +2°C° 0 mm 5 mps 628 mmHg 57%
    05:00 +2°C° 0 mm 5 mps 628 mmHg 56%
    06:00 +2°C° 0 mm 5 mps 628 mmHg 55%
    07:00 +3°C° 0 mm 5 mps 628 mmHg 54%
    08:00 +3°C° 0 mm 5 mps 628 mmHg 53%
    09:00 +6°C° 0 mm 5 mps 629 mmHg 49%
    10:00 +8°C° 0 mm 5 mps 629 mmHg 44%
    11:00 +10°C° 0 mm 6 mps 630 mmHg 40%
    12:00 +10°C° 0 mm 6 mps 630 mmHg 39%
    13:00 +11°C° 0 mm 6 mps 629 mmHg 38%
    14:00 +11°C° 0 mm 6 mps 629 mmHg 38%
    15:00 +10°C° 0 mm 5 mps 629 mmHg 41%
    16:00 +9°C° 0 mm 5 mps 628 mmHg 44%
    17:00 +7°C° 0 mm 4 mps 627 mmHg 47%
    18:00 +7°C° 0 mm 4 mps 627 mmHg 48%
    19:00 +6°C° 0 mm 4 mps 627 mmHg 50%
    20:00 +6°C° 0 mm 4 mps 627 mmHg 52%
    21:00 +6°C° 0 mm 4 mps 627 mmHg 54%
    22:00 +5°C° 0 mm 4 mps 627 mmHg 56%
    23:00 +5°C° 0 mm 4 mps 626 mmHg 58%

    Day after tomorrow, 16 November, Saturday

    Time Temperature Precipitation Wind Pressure Humidity
    00:00 +5°C° 0 mm 4 mps 626 mmHg 58%
    01:00 +5°C° 0 mm 4 mps 626 mmHg 59%
    02:00 +5°C° 0 mm 4 mps 626 mmHg 59%
    03:00 +5°C° 0 mm 4 mps 626 mmHg 61%
    04:00 +4°C° 0 mm 4 mps 626 mmHg 63%
    05:00 +4°C° 0 mm 4 mps 626 mmHg 65%
    06:00 +4°C° 0 mm 3 mps 627 mmHg 66%
    07:00 +5°C° 0 mm 2 mps 627 mmHg 68%
    08:00 +5°C° 0 mm 1 mps 627 mmHg 70%
    09:00 +4°C° 0.6 mm 2 mps 628 mmHg 75%
    10:00 +4°C° 0.6 mm 2 mps 628 mmHg 80%
    11:00 +3°C° 0.6 mm 2 mps 628 mmHg 85%
    12:00 +3°C° 0.3 mm 2 mps 628 mmHg 88%
    13:00 +3°C° 0.3 mm 2 mps 629 mmHg 90%
    14:00 +4°C° 0.3 mm 1 mps 629 mmHg 92%
    15:00 +3°C° 0.1 mm 1 mps 630 mmHg 92%
    16:00 +3°C° 0.1 mm 1 mps 630 mmHg 91%
    17:00 +3°C° 0.1 mm 1 mps 631 mmHg 90%
    18:00 +3°C° 0.1 mm 1 mps 631 mmHg 91%
    19:00 +2°C° 0.1 mm 1 mps 631 mmHg 93%
    20:00 +2°C° 0.1 mm 1 mps 632 mmHg 94%
    21:00 +1°C° 0 mm 2 mps 632 mmHg 91%
    22:00 0°C° 0 mm 3 mps 632 mmHg 87%
    23:00 -1°C° 0 mm 4 mps 632 mmHg 84%

    17 November, Sunday

    Time Temperature Precipitation Wind Pressure Humidity
    00:00 -2°C° 0 mm 4 mps 631 mmHg 82%
    01:00 -2°C° 0 mm 4 mps 631 mmHg 80%
    02:00 -2°C° 0 mm 4 mps 630 mmHg 77%
    03:00 -2°C° 0 mm 4 mps 630 mmHg 76%
    04:00 -2°C° 0 mm 5 mps 629 mmHg 74%
    05:00 -1°C° 0 mm 5 mps 629 mmHg 73%
    06:00 -1°C° 0 mm 5 mps 629 mmHg 72%
    07:00 -2°C° 0 mm 6 mps 629 mmHg 71%
    08:00 -2°C° 0 mm 6 mps 629 mmHg 70%
    09:00 0°C° 0 mm 7 mps 629 mmHg 64%
    10:00 +2°C° 0 mm 7 mps 629 mmHg 58%
    11:00 +2°C° 0 mm 8 mps 629 mmHg 52%
    12:00 +4°C° 0 mm 8 mps 628 mmHg 51%
    13:00 +5°C° 0 mm 8 mps 628 mmHg 50%
    14:00 +5°C° 0 mm 8 mps 628 mmHg 49%
    15:00 +4°C° 0 mm 7 mps 627 mmHg 54%
    16:00 +3°C° 0 mm 6 mps 627 mmHg 58%
    17:00 +2°C° 0 mm 5 mps 627 mmHg 63%
    18:00 +2°C° 0 mm 5 mps 627 mmHg 62%
    19:00 +2°C° 0 mm 5 mps 627 mmHg 60%
    20:00 +2°C° 0 mm 5 mps 627 mmHg 59%
    21:00 +2°C° 0 mm 5 mps 627 mmHg 61%
    22:00 +1°C° 0 mm 4 mps 628 mmHg 62%
    23:00 +1°C° 0 mm 4 mps 628 mmHg 64%

    18 November, Monday

    Time Temperature Precipitation Wind Pressure Humidity
    00:00 +1°C° 0 mm 4 mps 628 mmHg 65%
    01:00 +1°C° 0 mm 4 mps 628 mmHg 66%
    02:00 +1°C° 0 mm 5 mps 628 mmHg 67%
    03:00 +1°C° 0 mm 4 mps 628 mmHg 68%
    04:00 0°C° 0 mm 4 mps 628 mmHg 69%
    05:00 0°C° 0 mm 4 mps 628 mmHg 70%
    06:00 +1°C° 0 mm 4 mps 628 mmHg 70%
    07:00 +1°C° 0 mm 4 mps 629 mmHg 69%
    08:00 +1°C° 0 mm 4 mps 629 mmHg 69%
    09:00 +3°C° 0 mm 5 mps 629 mmHg 64%
    10:00 +5°C° 0 mm 5 mps 629 mmHg 59%
    11:00 +7°C° 0 mm 6 mps 630 mmHg 55%
    12:00 +8°C° 0 mm 6 mps 629 mmHg 52%
    13:00 +8°C° 0 mm 6 mps 629 mmHg 49%
    14:00 +9°C° 0 mm 6 mps 629 mmHg 46%
    15:00 +8°C° 0 mm 5 mps 629 mmHg 51%
    16:00 +7°C° 0 mm 3 mps 628 mmHg 56%
    17:00 +6°C° 0 mm 2 mps 628 mmHg 62%
    18:00 +5°C° 0 mm 2 mps 628 mmHg 63%
    19:00 +5°C° 0 mm 2 mps 627 mmHg 65%
    20:00 +5°C° 0 mm 2 mps 627 mmHg 66%
    21:00 +5°C° 0 mm 1 mps 627 mmHg 68%
    22:00 +5°C° 0 mm 1 mps 627 mmHg 69%
    23:00 +4°C° 0 mm 1 mps 627 mmHg 71%

    19 November, Tuesday

    Time Temperature Precipitation Wind Pressure Humidity
    00:00 +4°C° 0 mm 1 mps 627 mmHg 72%
    01:00 +4°C° 0 mm 1 mps 627 mmHg 74%
    02:00 +3°C° 0 mm 1 mps 627 mmHg 75%
    03:00 +2°C° 0 mm 2 mps 626 mmHg 76%
    04:00 +2°C° 0 mm 2 mps 626 mmHg 76%
    05:00 +2°C° 0 mm 2 mps 626 mmHg 77%
    06:00 +3°C° 0 mm 2 mps 626 mmHg 74%
    07:00 +3°C° 0 mm 2 mps 626 mmHg 72%
    08:00 +3°C° 0 mm 3 mps 626 mmHg 70%
    09:00 +5°C° 0 mm 4 mps 626 mmHg 62%
    10:00 +6°C° 0 mm 5 mps 626 mmHg 55%
    11:00 +8°C° 0 mm 5 mps 626 mmHg 48%
    12:00 +9°C° 0 mm 6 mps 626 mmHg 45%
    13:00 +10°C° 0 mm 6 mps 625 mmHg 42%
    14:00 +11°C° 0 mm 6 mps 625 mmHg 39%
    15:00 +10°C° 0 mm 5 mps 624 mmHg 42%
    16:00 +9°C° 0 mm 5 mps 623 mmHg 45%
    17:00 +7°C° 0 mm 4 mps 623 mmHg 48%
    18:00 +7°C° 0 mm 4 mps 622 mmHg 48%
    19:00 +7°C° 0 mm 5 mps 622 mmHg 48%
    20:00 +6°C° 0 mm 5 mps 621 mmHg 48%
    21:00 +6°C° 0 mm 5 mps 621 mmHg 49%
    22:00 +6°C° 0 mm 5 mps 621 mmHg 49%
    23:00 +6°C° 0 mm 5 mps 620 mmHg 49%
    Show more